Location: Brede
(50.9167°N, 0.6000°E)
Time: 08:50:00
(UTC+00:00)

Altair - Pass Details

Date: 01 August 2021
Orbit: 1501 x 1682 km, 47.2° (Epoch: 18 September)

Event Time Altitude Azimuth Distance (km) Brightness Sun altitude
Exits shadow 02:00:24 22° 214° (SSW) 2,885 8.3 -16.5°
Maximum altitude 02:06:19 49° 152° (SSE) 1,901 7.8 -16.1°
Drops below altitude 10° 02:14:59 10° 81° (E) 3,659 10.1 -15.3°
Sets 02:18:06 0° 76° (ENE) 4,639 10.8 -15.1°
